KORONAS-FOTON

Last updated on Sun Dec 14 2025 00:02:16 GMT+0000 (Coordinated Universal Time)

1 33504U 09003A 25347.33877844 .00019746 00000+0 47286-3 0 9998 2 33504 82.4315 5.4854 0013267 106.4813 253.7892 15.41209881932434
UTC large
Height (km)
Speed (km/s)
/
Latitude / Longitude
Inclination (degrees)
Orbital Period (minutes)
Azimuth
Elevation
Range (km)
Doppler Factor

Next 0 passes for location: London (51.5072 / 0.1276)

Sorry there are no passes over London.